sat.trackr.live / text

‹ back to catalog

STARLINK-35138

NORAD 65420 · 2025-192S

PAYLOAD ACTIVE UNKNOWN

§ Identity

Operator
Country
US
Launch date
2025-08-31
Launch site
AFETR
Launch vehicle
Mass (kg)
RCS (m²)

Purposes: comms

External: N2YO · Heavens-Above · Gunter

§ Orbital elements

Epoch: 2026-05-24T16:24:45.319104Z

Period
94.01 min
Inclination
53.1571°
Eccentricity
0.0001034
Mean motion
15.31710515 rev/d
Perigee alt
470.0 km
Apogee alt
471.4 km
Semi-major
6,848.8 km
B*
7.1471e-4
RAAN
239.0639°
Arg perigee
79.3118°
Mean anomaly
280.8000°
Rev number
4,102

§ Raw data

STARLINK-351381 65420U 25192S   26144.68385786  .00021886  00000+0  71471-3 0  99912 65420  53.1571 239.0639 0001034  79.3118 280.8000 15.31710515 41024

JSON: /api/v1/satellites/65420 · /tle

For live sub-satellite position, see the globe view (requires WebGL).

§ Visibility from observer

Set your observer location to see the next 7 days of passes ≥ 10°. The values pass through the URL so the page stays shareable.

No JS? Fill the form by hand. The geolocation button needs JavaScript.